Regional Weather Roundup
Issued by NWS

Home | Current Version | Previous Version | Text Only | Print | Product List | Glossary On
Versions: 1 2 3 4 5 6 7 8 9 10 11 12 13 14 15 16 17 18 19 20 21 22 23 24 25 26 27 28 29 30 31 32 33 34 35 36 37 38 39 40 41 42 43 44 45 46 47 48 49 50
000
ASUS42 KKEY 220910
RWRKEY

FLORIDA REGIONAL WEATHER ROUNDUP FOR THE FLORIDA KEYS
NATIONAL WEATHER SERVICE KEY WEST FLORIDA
500 AM EDT FRI MAY 22 2015

...SOUTH FLORIDA AND THE KEYS...

CITY           SKY/WX    TMP DP  RH WIND       PRES   REMARKS
FORT MYERS     CLEAR     77  74  90 N5        30.02S
SW REGIONAL AP   N/A     76  73  91 CALM      30.02F
NAPLES         CLEAR     79  74  84 N5        30.02S
MIAMI          PTCLDY    78  71  79 CALM      30.02S
WEST KENDALL   CLEAR     73  69  87 CALM      30.02S
HOMESTEAD      CLEAR     75  70  84 W1        30.01F
MARATHON       MOCLDY    81  74  79 CALM      30.02F
BOCA CHICA NAS CLEAR     79  72  79 N5        30.03S
KEY WEST INTL  CLEAR     78  74  87 N3        30.03S

...INTERNATIONAL WEATHER...

CITY           SKY/WX    TMP DP  RH WIND       PRES   REMARKS
NASSAU BAHAMAS NOT AVBL
CANCUN MEXICO  PTCLDY    73  73 100 CALM      30.01S
COZUMEL MEXICO PTCLDY    68  68 100 CALM      30.01R

ADJACENT COASTAL WATERS...

STATION/POSITION TIME  SKY/WX   TEMP    WIND        PRES    WAVE
                                AIR SEA DIR/SP/G            HT/PER
                 (UTC)          (F)     (DEG/KT/KT) (MB)    (FT/S)
PULASKI SHOAL LI 0800            80      60/  3/  4 1016.8F
SAND KEY         0850            81      10/  6/  8 1016.9R
SOMBRERO KEY     0900            81     210/  6/  6 1017.3F
LONG KEY         0800            83 86  310/  5/  5 1017.6R
MOLASSES REEF    0900            81 82  360/  6/  6 1016.5F
FOWEY ROCKS      NOT AVBL

$$



USA.gov is the U.S. government's official web portal to all federal, state and local government web resources and services.